Wind_Speed
14 13 12 10 9 7 5 4 3 1 4 8 12 13 14 15 17 18 19 19 18 15 14 14 14 14 14 14 14 12 11 8 8 7 7 6 3 3 2 2 2 2 3 4
16 14 12 11 10 8 8 6 4 3 4 7 10 12 12 13 15 17 18 18 20 18 15 14 14 14 13 13 13 11 10 7 7 7 7 6 5 3 2 2 3 3 3 5
17 15 14 13 11 10 10 9 8 7 7 9 11 11 11 11 14 16 17 17 18 19 16 14 14 14 13 13 12 11 9 7 6 6 6 6 6 5 4 3 4 4 4 5
19 17 16 14 13 12 12 12 11 11 10 11 11 11 10 11 12 14 16 17 18 18 16 15 14 14 12 12 11 10 9 8 6 5 6 6 6 5 5 4 4 4 4 5
21 20 18 16 14 13 14 14 12 12 12 12 12 12 11 12 11 13 16 17 18 18 16 15 13 12 12 11 10 10 10 8 6 6 6 6 5 5 5 5 5 5 5 6
22 21 20 17 15 14 15 15 14 12 11 11 11 12 11 11 12 13 15 16 17 17 16 15 13 11 11 11 10 10 9 9 7 6 6 6 5 5 5 5 5 6 6 7
23 22 20 19 17 16 17 16 15 13 11 9 9 11 11 10 11 13 14 16 16 15 15 15 13 12 12 11 10 9 9 8 8 6 6 6 6 5 5 6 6 7 7 7
25 22 20 18 16 15 16 17 15 14 12 10 10 11 11 10 10 12 13 14 15 15 14 14 13 12 12 11 11 9 8 8 7 6 6 6 6 6 6 7 7 7 7 8
26 24 22 20 17 16 16 17 16 15 14 13 11 11 10 12 11 12 12 13 15 15 14 13 13 12 11 11 11 10 9 8 7 6 6 6 6 7 7 7 7 7 8 8
26 25 24 22 21 18 16 16 18 17 16 15 14 13 11 10 12 13 13 13 15 15 14 14 13 13 12 11 10 10 9 8 7 7 6 6 7 8 8 8 8 8 8 8
28 27 25 24 22 19 17 16 18 19 18 17 17 16 13 12 13 12 12 12 15 15 14 14 14 13 12 11 10 10 9 9 8 7 7 7 8 8 9 9 9 8 8 8
28 28 28 26 24 21 19 17 18 20 20 19 20 19 16 15 14 13 13 13 14 13 13 13 13 12 12 11 10 9 9 9 9 9 8 8 9 9 10 10 9 9 9 8
29 30 30 29 27 24 22 19 18 19 20 22 22 20 18 17 16 16 15 14 13 13 12 12 12 11 11 11 11 10 10 10 9 9 9 9 10 11 11 10 9 9 9 9
30 31 32 31 28 27 25 21 19 20 20 21 21 21 20 18 18 17 15 15 15 14 13 13 12 12 11 11 11 11 11 10 10 9 9 10 11 11 11 11 10 10 10 10
33 33 32 31 30 30 29 26 23 22 21 22 20 20 21 19 19 18 17 17 17 16 15 14 13 12 12 12 12 12 11 11 11 10 10 10 11 11 11 10 10 11 11 11
37 36 35 33 32 32 32 29 26 24 22 22 21 21 21 21 22 21 20 20 19 18 16 15 15 14 13 13 13 12 12 11 11 11 11 11 11 11 11 11 12 12 12 12
39 38 37 37 34 33 33 30 28 26 23 23 23 23 23 23 24 24 23 22 21 20 18 17 17 16 15 14 14 14 14 13 13 13 13 13 13 13 13 13 13 13 13 13
40 38 38 38 37 38 34 32 32 29 27 26 26 24 24 25 25 25 26 25 24 22 21 20 19 18 17 16 15 16 16 15 14 14 14 15 15 15 15 15 15 15 15 15
43 41 39 39 39 38 36 35 36 35 32 31 29 28 26 25 26 27 27 27 26 24 22 22 21 19 19 18 17 17 17 16 16 16 15 16 16 16 17 17 17 16 16 16
45 44 42 40 40 39 36 36 38 39 38 35 33 32 30 29 29 28 28 27 26 26 25 24 23 21 21 20 19 18 18 19 19 18 18 18 18 18 19 19 19 18 18 18
46 45 43 42 41 40 38 37 38 40 41 39 38 36 34 33 33 31 31 29 29 28 27 25 24 23 22 21 21 20 20 21 21 21 21 21 21 21 21 21 20 20 20 20
46 46 45 44 43 42 38 38 39 41 41 41 40 39 38 36 36 36 34 33 32 30 29 27 25 25 25 24 23 22 22 23 23 23 23 23 23 23 23 23 22 22 22 22
46 46 45 44 43 41 39 40 41 42 42 41 41 40 38 37 37 36 36 35 34 33 30 29 27 27 28 27 26 25 25 26 26 26 26 26 25 25 25 25 25 25 25 25
45 46 45 45 45 43 42 41 42 42 42 41 41 40 39 40 38 36 36 35 34 33 32 30 29 29 30 30 29 28 29 29 29 28 28 27 27 27 27 27 27 27 27 27
43 44 45 45 44 42 42 42 42 42 42 41 41 41 40 40 40 38 37 36 35 35 32 31 32 33 33 32 31 31 31 31 31 30 30 29 29 28 28 28 28 29 28 28
41 42 43 43 43 41 41 41 40 41 41 40 41 42 42 41 41 40 39 38 37 36 36 35 35 36 35 34 34 34 34 34 34 32 31 31 31 30 30 30 30 30 29 30
Wind_Direction
200 197 199 201 191 174 153 136 106 38 325 317 317 324 329 333 340 348 353 356 0 4 5 4 360 358 0 2 0 360 0 7 12 16 10 9 16 13 355 321 282 258 234 228
208 205 204 204 197 189 187 184 185 213 277 295 303 310 317 327 340 345 350 354 2 1 2 3 360 358 358 358 358 358 354 358 0 6 5 4 8 4 349 315 284 263 237 231
214 212 213 206 202 202 201 207 210 226 254 273 283 299 309 323 337 341 344 349 352 352 357 358 357 359 359 358 358 358 0 356 349 354 359 350 351 354 342 317 285 261 245 241
217 218 218 214 211 211 211 220 225 234 245 258 277 292 303 315 328 332 338 345 348 350 349 351 353 352 356 360 0 2 4 358 350 347 347 338 334 333 329 318 298 275 264 255
219 221 224 223 217 218 218 223 229 235 246 253 266 280 294 308 317 329 337 343 347 348 346 346 349 351 355 358 1 3 3 1 357 347 341 333 322 321 322 316 302 283 270 267
223 227 230 230 224 221 223 227 230 237 246 254 267 279 294 302 315 329 337 341 347 349 348 345 350 353 356 357 356 357 359 359 355 353 350 341 329 322 319 321 308 289 279 273
225 228 233 235 231 226 229 230 232 236 243 254 272 281 288 298 312 327 332 338 344 347 349 349 353 357 357 354 352 352 352 352 351 349 350 348 340 331 323 318 312 299 290 283
226 224 229 233 235 231 233 235 236 239 242 255 269 280 288 297 309 321 329 337 346 348 347 350 352 352 354 354 353 352 352 352 353 350 349 348 345 340 334 326 320 310 297 291
226 224 224 227 228 229 233 236 238 242 242 249 261 277 293 305 305 313 326 336 345 348 349 350 352 351 349 349 352 352 351 352 352 352 350 349 345 343 341 336 330 322 307 298
225 224 223 225 226 227 233 236 238 242 244 250 257 270 289 301 305 309 318 329 338 342 345 347 348 349 348 347 348 350 352 353 351 352 348 346 343 341 340 337 334 330 321 308
223 224 219 221 224 224 227 236 241 243 245 249 254 260 275 288 301 306 312 320 331 336 340 342 344 344 347 348 349 350 353 355 356 353 349 350 346 341 337 333 330 331 327 317
223 224 220 220 223 222 226 233 241 243 245 249 254 258 263 275 289 297 309 316 322 330 334 336 338 342 346 349 349 351 354 355 353 350 349 348 343 339 336 332 330 331 329 325
221 223 220 218 221 224 227 231 238 243 244 246 250 256 262 269 282 291 300 307 317 323 325 330 332 336 342 346 348 348 348 349 349 348 345 344 340 335 335 332 327 327 323 320
221 224 223 221 220 223 227 230 232 238 244 246 248 252 257 267 280 285 290 299 311 315 318 321 326 329 334 339 340 342 341 340 341 343 344 342 339 336 334 328 322 320 319 316
222 225 224 222 220 222 226 229 232 235 241 246 246 248 250 258 270 279 286 292 302 310 312 317 321 323 324 328 331 335 335 333 334 335 336 336 335 335 334 329 322 318 318 318
222 224 224 224 223 223 226 228 231 232 237 244 244 246 245 251 259 268 278 285 291 300 301 308 313 315 316 318 322 325 330 329 329 330 330 330 328 329 329 330 325 320 317 315
226 228 227 227 227 227 228 228 232 233 237 242 242 242 240 245 255 264 273 279 285 294 301 304 306 307 306 308 311 313 317 319 321 322 323 324 325 324 325 325 323 319 318 317
229 230 232 233 232 231 229 227 231 233 237 242 243 241 243 246 253 262 270 276 282 289 294 298 299 300 299 300 303 306 310 311 311 314 318 321 323 324 323 324 321 319 316 313
231 232 234 235 236 236 232 231 231 234 238 241 244 243 245 248 253 260 265 271 277 284 288 290 292 292 293 294 296 299 305 308 307 309 313 315 318 320 321 322 320 318 316 314
233 235 236 237 238 238 235 232 233 235 238 241 243 244 247 251 255 260 265 268 273 277 281 284 286 286 287 288 289 294 300 305 307 307 310 311 314 315 317 318 317 315 315 314
232 235 237 238 239 239 236 232 234 236 238 241 243 244 247 251 254 258 261 265 270 273 275 277 281 281 283 284 286 290 294 296 300 303 306 307 309 311 312 312 312 312 311 312
231 234 236 238 239 238 237 234 234 236 239 241 243 246 249 251 254 256 259 262 266 268 270 272 274 275 278 280 282 285 288 291 294 297 299 301 304 307 308 307 307 308 308 308
230 233 235 238 239 239 237 235 234 236 238 241 244 246 249 250 253 254 257 261 264 266 268 269 270 270 274 276 279 281 283 285 288 291 293 296 299 302 303 303 303 303 304 305
229 232 234 236 238 238 239 237 235 236 238 240 243 246 248 250 253 255 257 260 262 264 265 267 268 270 272 273 275 278 280 282 284 286 288 291 294 296 298 299 301 301 301 302
230 233 235 237 240 240 240 240 239 237 238 239 242 246 249 251 253 253 255 258 260 262 263 264 267 268 268 270 272 275 277 279 281 283 285 287 290 292 294 295 298 298 298 298
229 232 235 238 240 241 241 241 241 241 241 242 243 245 248 251 254 255 258 258 260 261 262 263 265 267 268 269 271 273 275 278 280 281 283 286 289 291 292 293 295 296 295 296
Height
5936 5938 5939 5940 5941 5941 5942 5943 5943 5943 5942 5943 5942 5940 5939 5937 5936 5934 5932 5930 5927 5923 5922 5920 5918 5915 5913 5911 5909 5906 5904 5902 5901 5901 5900 5899 5899 5898 5898 5897 5897 5898 5898 5898
5934 5936 5937 5938 5938 5939 5940 5942 5942 5942 5941 5941 5941 5939 5938 5937 5935 5934 5932 5930 5927 5925 5922 5920 5918 5915 5913 5910 5908 5906 5904 5902 5901 5901 5900 5899 5898 5898 5897 5897 5896 5896 5897 5897
5931 5934 5934 5935 5936 5937 5939 5940 5940 5941 5940 5940 5939 5939 5937 5936 5935 5934 5932 5930 5927 5924 5922 5920 5917 5915 5912 5910 5908 5906 5904 5902 5901 5900 5899 5898 5898 5897 5897 5896 5896 5895 5895 5896
5928 5930 5931 5932 5934 5935 5937 5937 5938 5938 5939 5938 5938 5937 5937 5935 5934 5933 5931 5929 5926 5924 5922 5919 5917 5914 5911 5909 5907 5906 5904 5902 5901 5899 5898 5897 5897 5896 5896 5895 5895 5894 5894 5894
5924 5926 5927 5929 5931 5933 5934 5935 5935 5936 5936 5937 5937 5936 5936 5934 5933 5932 5930 5928 5926 5923 5921 5919 5916 5913 5911 5909 5907 5905 5903 5901 5900 5899 5898 5896 5896 5895 5895 5894 5893 5893 5893 5892
5921 5923 5924 5926 5928 5930 5931 5932 5933 5934 5934 5935 5935 5934 5934 5932 5931 5930 5929 5927 5925 5922 5920 5917 5914 5912 5910 5908 5906 5904 5903 5901 5899 5898 5897 5895 5894 5894 5893 5892 5892 5891 5891 5890
5916 5919 5921 5923 5925 5926 5928 5929 5931 5931 5932 5932 5932 5931 5931 5930 5929 5928 5927 5926 5924 5921 5919 5916 5914 5911 5909 5907 5905 5903 5902 5900 5898 5897 5896 5894 5893 5892 5892 5891 5890 5889 5889 5888
5910 5915 5917 5919 5921 5923 5924 5926 5928 5929 5929 5929 5928 5928 5928 5927 5926 5925 5925 5925 5923 5920 5918 5915 5913 5911 5909 5907 5905 5903 5901 5899 5897 5896 5895 5893 5892 5891 5890 5889 5888 5887 5887 5886
5905 5910 5913 5914 5916 5919 5920 5922 5924 5925 5925 5925 5925 5925 5925 5924 5923 5923 5923 5923 5921 5919 5917 5915 5912 5910 5908 5906 5904 5902 5900 5898 5897 5895 5894 5892 5891 5890 5889 5888 5887 5885 5884 5883
5899 5904 5907 5910 5911 5914 5916 5918 5919 5920 5921 5921 5922 5922 5923 5922 5921 5921 5921 5920 5920 5918 5916 5913 5911 5909 5907 5905 5903 5901 5899 5897 5895 5894 5893 5891 5890 5889 5887 5886 5885 5884 5882 5881
5893 5898 5902 5904 5906 5909 5912 5914 5915 5916 5917 5918 5918 5921 5920 5920 5919 5919 5919 5918 5917 5916 5914 5912 5910 5908 5905 5903 5901 5900 5898 5896 5894 5893 5891 5890 5889 5887 5886 5884 5883 5881 5880 5879
5887 5891 5895 5899 5902 5904 5907 5909 5911 5913 5914 5914 5914 5918 5917 5917 5917 5917 5916 5916 5915 5914 5912 5910 5909 5907 5904 5902 5900 5898 5897 5895 5893 5892 5890 5888 5887 5886 5884 5882 5881 5879 5878 5877
5881 5885 5889 5893 5898 5899 5901 5904 5906 5907 5909 5909 5910 5914 5913 5913 5913 5913 5913 5913 5912 5911 5910 5909 5907 5905 5903 5901 5899 5897 5895 5894 5892 5890 5889 5887 5885 5884 5882 5880 5879 5877 5876 5875
5875 5878 5883 5888 5892 5894 5896 5899 5901 5902 5903 5905 5906 5908 5908 5908 5909 5909 5910 5910 5909 5908 5907 5906 5905 5904 5902 5900 5898 5896 5894 5892 5891 5889 5887 5885 5884 5882 5880 5878 5876 5875 5874 5872
5867 5872 5876 5881 5886 5888 5891 5893 5895 5897 5898 5899 5901 5902 5904 5905 5905 5905 5905 5906 5906 5906 5905 5904 5902 5901 5900 5898 5896 5894 5892 5891 5889 5887 5885 5884 5882 5880 5878 5876 5874 5872 5871 5870
5860 5865 5870 5874 5879 5882 5885 5888 5890 5892 5893 5894 5895 5897 5899 5900 5900 5901 5901 5901 5902 5902 5901 5900 5900 5898 5897 5896 5894 5893 5891 5889 5887 5885 5883 5881 5880 5878 5876 5874 5872 5870 5869 5867
5854 5859 5863 5867 5872 5875 5879 5883 5885 5886 5886 5887 5889 5892 5893 5894 5895 5896 5896 5897 5898 5898 5898 5897 5896 5895 5894 5893 5891 5890 5888 5887 5885 5883 5881 5879 5877 5875 5873 5871 5869 5868 5866 5864
5848 5852 5856 5860 5865 5868 5876 5877 5878 5879 5880 5882 5883 5885 5887 5888 5890 5891 5892 5893 5893 5894 5894 5893 5892 5891 5890 5889 5888 5887 5885 5883 5882 5880 5878 5876 5874 5872 5870 5868 5866 5864 5862 5861
5840 5844 5848 5852 5856 5860 5866 5869 5870 5872 5874 5875 5877 5879 5881 5882 5884 5885 5887 5888 5888 5889 5889 5889 5888 5887 5886 5885 5884 5883 5881 5879 5878 5877 5875 5873 5871 5869 5867 5865 5863 5861 5859 5857
5831 5835 5840 5843 5847 5851 5858 5861 5862 5866 5867 5869 5871 5873 5875 5876 5878 5880 5881 5882 5883 5884 5884 5884 5883 5882 5881 5880 5880 5879 5877 5876 5874 5873 5871 5869 5867 5865 5863 5861 5859 5857 5854 5852
5822 5826 5830 5834 5837 5842 5848 5852 5855 5858 5860 5862 5863 5865 5868 5870 5872 5874 5875 5876 5877 5877 5878 5878 5877 5877 5876 5875 5874 5874 5873 5871 5870 5868 5866 5865 5863 5861 5859 5857 5854 5852 5850 5848
5812 5816 5821 5825 5828 5835 5839 5843 5846 5848 5851 5853 5855 5858 5860 5863 5865 5866 5868 5869 5870 5870 5871 5871 5871 5870 5870 5869 5868 5868 5867 5866 5864 5863 5861 5859 5858 5856 5854 5852 5849 5847 5845 5842
5802 5807 5811 5816 5821 5825 5828 5832 5836 5839 5842 5845 5847 5850 5852 5854 5856 5859 5860 5861 5862 5863 5863 5863 5863 5863 5863 5862 5861 5861 5861 5860 5858 5857 5855 5853 5852 5850 5848 5846 5844 5841 5839 5836
5793 5797 5802 5806 5809 5814 5819 5823 5826 5830 5833 5836 5839 5842 5844 5846 5848 5850 5852 5852 5852 5853 5854 5855 5855 5855 5855 5854 5854 5854 5853 5852 5851 5849 5848 5846 5845 5843 5841 5839 5837 5835 5832 5830
5784 5788 5792 5796 5800 5805 5809 5813 5817 5821 5824 5827 5830 5833 5835 5837 5839 5841 5843 5843 5844 5844 5844 5845 5846 5846 5846 5846 5846 5845 5845 5844 5843 5841 5840 5839 5837 5836 5834 5832 5830 5828 5825 5823
5776 5780 5784 5787 5792 5796 5800 5803 5808 5811 5814 5818 5821 5823 5826 5827 5829 5831 5833 5834 5835 5835 5836 5837 5837 5837 5836 5836 5836 5837 5836 5835 5834 5833 5832 5830 5829 5827 5826 5824 5822 5819 5817 5815